Starlink 6379

operational
NORAD ID: 57343 Int'l Des: 2023-099 Owner: SPXS Country: US Constellation: starlink
LEOCIRCULAR

Über Starlink 6379

Beschreibung wird geladen...

Live-Position

3D-Globus wird geladen...

Nächste Überflüge

Höhenverlauf

Altitude vs Time

uPlot chart will show altitude changes over time

Zweizeiliger Elementsatz

1 57343U 23099R 25354.62277704 .00000158 00000-0 26741-4 0 9997
2 57343 43.0071 318.5353 0001107 265.6386 94.4329 15.02537955134227
Epoch: 20. Dez. 2025 • Age: 12 hours

Aktueller Status

Höhe 571.6 km
Geschwindigkeit 7.58 km/s
Subsatellitenpunkt -42.95°S, 92.8°E
Startdatum 16. Juli 2023
Alter 2.4 years
Typ internet

Technische Details

Klassifizierung Payload
Masse 305.00 kg
Trockenmasse 290.00 kg
Gesamtmasse 305.00 kg
Länge 0.20 m
Durchmesser 2.80 m
Spannweite 9.00 m
Form Box + pan
Hersteller SPXS
Bus-Typ Starlink
Phasenstatus In Orbit
Besitzer/Staat SPXS/US

Große Konstellationen

Loading constellations...